Regional Weather Roundup
Issued by NWS

Home | Current Version | Previous Version | Text Only | Print | Product List | Glossary Off
Versions: 1 2 3 4 5 6 7 8 9 10 11 12 13 14 15 16 17 18 19 20 21 22 23 24 25 26 27 28 29 30 31 32 33 34 35 36 37 38 39 40 41 42 43 44 45 46 47 48 49 50

000
ASUS43 KDTX 290701
RWRMI
MICHIGAN HOURLY REGIONAL WEATHER ROUNDUP
NATIONAL WEATHER SERVICE DETROIT/PONTIAC MI
300 AM EDT SAT APR 29 2017

NOTE: "FAIR" INDICATES FEW OR NO CLOUDS BELOW 12,000 FEET WITH NO
SIGNIFICANT WEATHER AND/OR OBSTRUCTION TO VISIBILITY.

MIZ047>049-052>055-059>063-066>070-074>076-081>083-290800-
SOUTHEAST LOWER MICHIGAN

CITY           SKY/WX    TMP DP  RH WIND       PRES   REMARKS
ADRIAN         CLOUDY    53  51  93 CALM      29.97S
ALMA           CLOUDY    48  39  71 N9        30.03S
ANN ARBOR      LGT RAIN  53  51  93 CALM      29.98S
BAD AXE        CLOUDY    40  33  75 N8        30.06R
CARO           CLOUDY    43  35  72 NE7       30.03S
DETROIT CITY   CLOUDY    56  50  80 NW3       29.99R
DETROIT        LGT RAIN  54  52  93 NW3       29.99S
FLINT          CLOUDY    53  45  74 N14       29.99R
GROSSE ILE     CLOUDY    55  52  92 CALM      29.98S
HILLSDALE      CLOUDY    52  48  87 CALM      29.98S
HOWELL         CLOUDY    53  47  79 CALM      29.99S

CITY           SKY/WX    TMP DP  RH WIND       PRES   REMARKS
JACKSON        CLOUDY    51  47  86 CALM      30.00R
LAMBERTVILLE   DRIZZLE   54  53  96 CALM      29.99R
LANSING        CLOUDY    55  43  63 N8        30.00R
LAPEER         CLOUDY    53  44  72 NE14G22   30.00R
MASON          CLOUDY    53  49  85 CALM      29.99S
MONROE         CLOUDY    54  53  94 CALM      29.98S
MT. CLEMENS    CLOUDY    55  51  87 NW3       29.99R
PONTIAC        CLOUDY    53  47  79 CALM      29.97S
PORT HOPE        N/A     42  35  76 N17       30.04S
PORT HURON     CLOUDY    43  36  75 NE10G17   30.02R
TRI CITIES     CLOUDY    45  41  86 NE12      30.05R
MIDLAND        CLOUDY    47  38  71 N7        30.04S
TROY           CLOUDY    56  47  71 CALM      30.01R
SAGINAW HB     CLOUDY    45  34  65 NE12      30.03S
$$
MIZ043>046-050>051-056>058-064>065-071>073-077>080-290800-
SOUTHWEST LOWER MICHIGAN

CITY           SKY/WX    TMP DP  RH WIND       PRES   REMARKS
BATTLE CREEK   CLOUDY    53  48  83 S3        30.03R
BENTON HARBOR  CLOUDY    50  43  77 VRB5      30.00R
BIG RAPIDS     CLOUDY    42  35  75 N6        30.04F
COLDWATER      CLOUDY    52  49  90 N3        29.97F
FREMONT        CLOUDY    44  35  70 NE8       30.04F
HOLLAND        CLOUDY    48  39  71 NE9G21    30.02F
GRAND RAPIDS   CLOUDY    49  40  71 NE13      30.02R
IONIA          CLOUDY    50  38  65 N10       30.02R
KALAMAZOO      CLOUDY    55  46  71 CALM      30.02R
LUDINGTON      CLOUDY    41  38  89 N7        30.06S
MARSHALL       CLOUDY    51  49  93 N3        29.99R
MOUNT PLEASANT CLOUDY    44  34  69 N6        30.03S
MUSKEGON       CLOUDY    47  37  68 NE10G20   30.04F
SOUTH HAVEN    CLOUDY    50  39  66 NE8       30.00R
$$
MIZ016>042-290800-
NORTHERN LOWER MICHIGAN

CITY           SKY/WX    TMP DP  RH WIND       PRES   REMARKS
ALPENA         CLOUDY    39  32  76 NW7       30.06R WCI  34
BEAVER ISLAND  CLOUDY    37  28  70 NW9G16    30.11R WCI  30
BELLAIRE       CLOUDY    40  32  74 CALM      30.08S
CADILLAC       CLOUDY    40  32  74 N5        30.03F
CHARLEVOIX     CLOUDY    39  31  72 NW8       30.12R WCI  34
FRANKFORT      CLOUDY    41  35  80 N3        30.10R
GAYLORD        CLOUDY    39  28  64 VRB5      30.05R
GRAYLING       CLOUDY    39  31  73 NW8       30.05S WCI  33
HARBOR SPRINGS CLOUDY    38  29  69 W6        30.08R WCI  34
HOUGHTON LAKE  CLOUDY    41  32  70 N5        30.04S
MANISTEE       CLOUDY    41  36  82 N7        30.07F
OSCODA         FLURRIES  42  32  66 N3        30.04S
ROGERS CITY    CLOUDY    38  31  76 NW5       30.07R WCI  35
TRAVERSE CITY  CLOUDY    41  33  73 N9        30.08R
$$
MIZ007>008-015-290800-
EASTERN UPPER MICHIGAN

CITY           SKY/WX    TMP DP  RH WIND       PRES   REMARKS
KINROSS        CLOUDY    34  24  67 NW15      30.05S WCI  24
MACKINAC ISLAN CLOUDY    36  26  68 NW13G18   30.06R WCI  27
NEWBERRY       CLOUDY    33  26  74 NW9       30.07S WCI  25
S. S. MARIE    MOCLDY    36  24  62 NW17G28   30.03F WCI  26
MUNISING         N/A     37  29  72 N13       30.11R WCI  29
$$
MIZ004>006-011>014-085-290800-
CENTRAL UPPER MICHIGAN

CITY           SKY/WX    TMP DP  RH WIND       PRES   REMARKS
MANISTIQUE     MOCLDY    32  27  82 NW5       30.11R WCI  28
ESCANABA       CLEAR     33  24  69 NW3       30.14R
MENOMINEE      PTCLDY    37  26  64 N7        30.15R WCI  32
SAWYER-GWINN   PTCLDY    28  24  85 NW6       30.12R WCI  22
$$
MIZ001>003-009>011-084-290800-
WESTERN UPPER MICHIGAN

CITY           SKY/WX    TMP DP  RH WIND       PRES   REMARKS
IRON MOUNTAIN  CLEAR     28  23  81 NW7       30.12R WCI  21
HOUGHTON       CLEAR     31  23  72 W6        30.13R WCI  25
COPPER HARBOR    N/A     36  29  75 N14       30.12R WCI  27
IRONWOOD       CLEAR     24  23  96 CALM      30.19
$$

ABBREVIATIONS USED IN REMARKS
   TC - TEMPERATURE IN CELSIUS
  WCI - WIND CHILL INDEX
   HX - HEAT INDEX
  VSB - VISIBILITY




USA.gov is the U.S. government's official web portal to all federal, state and local government web resources and services.